{"data":{"norad_id":68429,"intl_designator":"2026-067P","name":"TROOP-F3","alt_names":[],"object_type":"PAYLOAD","status":"ACTIVE","operator":null,"country":"US","launch_date":"2026-03-30","launch_site_code":"AFWTR","launch_vehicle":null,"mission":null,"orbit_class":"UNKNOWN","rcs_meters":null,"size_class":null,"mass_kg":null,"dimensions":null,"purposes":[],"wikipedia_slug":null,"has_3d_model":false,"image_url":null,"decayed_at":null,"tle_current":{"epoch":"2026-09-20T03:18:41.383008Z","epoch_age_seconds":100530,"freshness":"FRESH","line1":"1 68429U 26067P   26263.13797897  .00009182  00000+0  41057-3 0  9999","line2":"2 68429  97.4603 220.5944 0004541  74.9151 285.2587 15.21525271 26373","mean_motion":15.21525271,"eccentricity":0.0004541,"inclination_deg":97.4603,"raan_deg":220.5944,"arg_perigee_deg":74.9151,"mean_anomaly_deg":285.2587,"bstar":0.00041057,"rev_number":2637,"period_min":94.641872037628,"perigee_km":498.11530348893,"apogee_km":504.36315297941,"semimajor_km":6879.3762282342,"source":"CELESTRAK","updated_at":"2026-09-20T09:00:24.201506Z"}}}